SENTINEL-6A

Last updated on Mon Sep 07 2026 00:02:46 GMT+0000 (Coordinated Universal Time)

1 46984U 20086A 26249.59675558 -.00000054 00000+0 29783-4 0 9992 2 46984 66.0436 325.9643 0007876 268.8596 91.1517 12.80929060270754
UTC large
Height (km)
Speed (km/s)
/
Latitude / Longitude
Inclination (degrees)
Orbital Period (minutes)
Azimuth
Elevation
Range (km)
Doppler Factor

Next 0 passes for location: London (51.5072 / 0.1276)

No passes found over London.
SENTINEL-6A